Back to catalog

FENGYUN 1C DEB

AliveSSO
NORAD 30241·DEBRIS·🇨🇳 China

Launched May 10, 1999 from Taiyuan Satellite Launch Center

Loading…

Next Passes (next 24 hours)

TLE

FreshSource: Space-Track

Epoch: Sep 14, 2026, 15:15 UTC

1 30241U 99025XA  26257.63541859  .00000212  00000-0  13282-3 0  9992
2 30241  99.1870  40.6121 0146032  30.5247 343.3666 14.09816729  8003

Track FENGYUN 1C DEB in real time with AllMySat

Download on the App Store